User: anonymous   Login
Location: Beekmeers
(50.8953°N, 3.6968°E)
Time: 06:33:51
(UTC+00:00)
Language:

Cosmos 2360 Rocket - Orbit

View from above orbital plane
View from above orbital plane
View from above satellite
View from above satellite

Ground track
Ground track

The orbit data is extracted from the following two-line orbital elements,

1 25407U 98045B   24202.83623766  .00000198  00000-0  12445-3 0  9992
2 25407  71.0124 356.6039 0008923 226.5874 133.4507 14.16014031342602
Epoch (UTC): 20 July 2024 20:04:10
Eccentricity: 0.0008923
inclination: 71.0124°
perigee height: 832 km
apogee height: 845 km
right ascension of ascending node: 356.6039°
argument of perigee: 226.5874°
revolutions per day: 14.16014031
mean anomaly at epoch: 133.4507°
orbit number at epoch: 34260

The dashed part of the orbit path shows where the satellite is in the earth's shadow,  

DLR